FENGYUN 1C DEB, 29975

Orbit data source: Space-Track

FENGYUN 1C DEB, 29975 is space debris in SSO originally from a launch on Mon, 10 May 1999 UTC launched from the Taiyaun Space Center, China (TSC). Fengyun 1C debris stems from the Chinese weather satellite Fengyun-1C, which was intentionally destroyed by a Chinese anti-satellite missile in 2007. This event dramatically increased the amount of space debris, with thousands of trackable fragments posing hazards to satellites and human spaceflight. The Fengyun 1C debris cloud has become a focal point in discussions about space sustainability and the need for international regulations to prevent the creation of new debris.

Loading next visibility...
Identifier
29975, 1999-025KZ
Orbit
SSO
Country
Flag of CNCN / PRC
Related business
Manufacturer
Unknown
Mission
Spacecraft
Bus & Motor
Unknown
Mass
Unknown
Launch date (UTC)
1999-05-10 (27 years ago)
Launch vehicle
Unknown
Launch site
Taiyaun Space Center, China (TSC)
Object type
Payload
Rocket body
Debris
Shape & HBR
Unknown shape, 0.1 m
Radar Cross Section
Medium (>0.1 m² and <1 m²)

Expand to show TLE details & history
Last TLE update: 13 hours ago

TLE from 13 hours ago
0 FENGYUN 1C DEB
1 29975U 99025KZ  26178.11584459 -.00000159  00000-0 -75211-4 0  9995
2 29975  99.3109 227.3095 0113646 197.4885 220.8317 13.98110378991818
Epoch: 2026-06-27T02:46Z
TLE epoch observation values (Epoch: 2026-06-27T02:46:48.972Z)
Latitude
56.41058°
Longitude
-103.84557°
Altitude
972.702 km
Speed
7.339 km/s
True Right ascension
14h 12m 22s
True Declination
56° 15' 24"
Sunlit
Object was in daylight at epoch
Visualization orbit readout
Latitude
Unknown
Longitude
Unknown
Altitude
Unknown
Speed
Unknown
Apparent Right ascension
Unknown
Apparent Declination
Unknown
Sunlit
N/A
Visualization observer readout
Local Sidereal Time
03:36:45
Azimuth
Unknown
Elevation
Unknown
Doppler factor
Unknown
Orbital elements
Apogee altitude
980.248 km
Perigee altitude
814.877 km
Semi-major axis
7,275.7 km
Eccentricity
0.01136
Inclination
99.3109°
RAAN
227.3095°
Arg. of periapsis
197.4885°
True anomaly
219.9893°
Mean anomaly
220.8317°
Eccentric anomaly
220.4096°
Mean motion
3.49728 °/min
Orbital period
102.94 mins
BSTAR
-0.000075211
Loading maneuver chart data...
Computing Atmospheric mass density...

Documentation

Showing up to 5 results
|